Regional Weather Roundup
Issued by NWS

Home | Current Version | Previous Version | Graphics & Text | Print | Product List | Glossary On
Versions: 1 2 3 4 5 6 7 8 9 10 11 12 13 14 15 16 17 18 19 20 21 22 23 24 25 26 27 28 29 30 31 32 33 34 35 36 37 38 39 40 41 42 43 44 45 46 47 48 49 50
000
ASUS43 KBIS 030810
RWRND

NORTH DAKOTA REGIONAL WEATHER ROUNDUP
NATIONAL WEATHER SERVICE BISMARCK ND
200 AM CST SAT DEC 03 2016

NOTE: "FAIR" INDICATES FEW OR NO CLOUDS BELOW 12,000 FEET WITH NO
SIGNIFICANT WEATHER AND/OR OBSTRUCTIONS TO VISIBILITY.


NDZ001>003-009>011-017-030900-
NORTHWEST NORTH DAKOTA

CITY           SKY/WX    TMP DP  RH WIND       PRES   REMARKS
WILLISTON      CLEAR     24  20  84 S5        29.96F WCI  18
MINOT          CLEAR     21  19  92 SE8       30.03F WCI  11
MINOT AFB      CLEAR     20  18  91 SE12      30.02F WCI   9
$$

NDZ018>021-031>035-040>046-030900-
SOUTHWEST NORTH DAKOTA

CITY           SKY/WX    TMP DP  RH WIND       PRES   REMARKS
BISMARCK       CLEAR     21  21 100 S8        30.13F WCI  11
DICKINSON      CLEAR     18  15  88 S13       29.99F WCI   5
GARRISON         N/A     25  23  92 S12       30.05F WCI  14
HETTINGER ARPT CLEAR     23  21  92 S12       30.04  WCI  12
$$

NDZ004>008-012>016-024-026-027-054-030900-
NORTHEAST NORTH DAKOTA

CITY           SKY/WX    TMP DP  RH WIND       PRES   REMARKS
GRAND FORKS    CLOUDY    29  21  72 S9        30.23
GRND FRKS AFB  CLOUDY    28  20  72 SW7       30.22F
$$

NDZ022-023-025-028>030-036>039-047>053-030900-
SOUTHEAST NORTH DAKOTA

CITY           SKY/WX    TMP DP  RH WIND       PRES   REMARKS
FARGO          CLOUDY    27  18  69 SW10      30.28  WCI  17
JAMESTOWN      CLOUDY    25  21  85 S9        30.18F WCI  15
$$





USA.gov is the U.S. government's official web portal to all federal, state and local government web resources and services.